weather.gov     
National Weather Service

Terminal Aerodrome Forecast
NWS Homepage
This page is being discontinued on March 12, 2014.
The same data is available at this site. Please update your bookmarks.
Thank you, and we apologize for the inconvenience.
Please send an email to SR-SRH.Webmaster@noaa.gov with any concerns.


Current Version
Previous Version:    01  02  03  04  05  06  07  08  09  10  11  12  13  14  15  16  17  18  19  20  21  22  23  24  25  26  27  28  29  30  
   31  32  33  34  35  36  37  38  39  
[Printable]
178
FTUS43 KOAX 190525
TAFOFK
TAF
KOFK 190525Z 1906/2006 18005KT P6SM OVC012
      TEMPO 1909/1913 3SM BR OVC007
     FM191600 19008KT P6SM OVC009
     FM191900 19011KT P6SM OVC015
     FM192200 18009KT P6SM BKN025=




178
FTUS43 KOAX 190525
TAFOFK
TAF
KOFK 190525Z 1906/2006 18005KT P6SM OVC012
      TEMPO 1909/1913 3SM BR OVC007
     FM191600 19008KT P6SM OVC009
     FM191900 19011KT P6SM OVC015
     FM192200 18009KT P6SM BKN025=


U.S. Dept. of Commerce
NOAA National Weather Service
1325 East West Highway
Silver Spring, MD 20910
E-mail: w-nws.webmaster@noaa.gov
Page last modified: May 16, 2007
NATIONAL WEATHER SERVICE: for Safety, for Work, for Fun - FOR LIFE